H-2A R/B - Orbit

View from above orbital plane
View from above orbital plane
View from above satellite
View from above satellite

Ground track
Ground track

The orbit data is extracted from the following two-line orbital elements,

1 27601U 02056E   13139.16231021  .00000179  00000-0  81696-4 0  8093
2 27601 098.5062 225.4151 0072823 023.5478 032.3448 14.31142035544640
Epoch (UTC): 19 May 2013 03:53:43
Eccentricity: 0.0072823
inclination: 98.5062°
perigee height: 736 km
apogee height: 840 km
right ascension of ascending node: 225.4151°
argument of perigee: 23.5478°
revolutions per day: 14.31142035
mean anomaly at epoch: 32.3448°
orbit number at epoch: 54464

The dashed part of the orbit path shows where the satellite is in the earth's shadow,  

Developed and maintained by Chris Peat, Heavens-Above GmbH. Please read the updated FAQ before sending e-mail. Imprint. DLR